| time (UTC) | temp F | wind direction | speed MPH | gust MPH | rain 1hr in | rain 24hr in | rain mn in | humidity % | barometer mb |
| 20260509053836 | 72 | 197 | 1.0 | 2.0 | 0.00 | 0.00 | 0.00 | 84 | 1010.4 |
| 20260509053333 | 72 | 240 | 0.0 | 2.0 | 0.00 | 0.00 | 0.00 | 84 | 1010.8 |
| 20260509052831 | 72 | 244 | 1.0 | 2.0 | 0.00 | 0.00 | 0.00 | 85 | 1010.8 |
| 20260509052328 | 72 | 297 | 0.0 | 2.0 | 0.00 | 0.00 | 0.00 | 84 | 1011.1 |
| 20260509051826 | 72 | 290 | 2.0 | 2.0 | 0.00 | 0.00 | 0.00 | 84 | 1010.4 |
| 20260509051324 | 72 | 194 | 1.0 | 5.0 | 0.00 | 0.00 | 0.00 | 84 | 1009.8 |
| 20260509050820 | 72 | 180 | 2.0 | 5.0 | 0.00 | 0.00 | 0.00 | 84 | 1009.6 |
| 20260509050317 | 72 | 195 | 1.0 | 6.0 | 0.00 | 0.00 | 0.00 | 84 | 1009.9 |
| 20260509045814 | 72 | 202 | 0.0 | 2.0 | 0.00 | 0.00 | 0.00 | 84 | 1009.7 |
| 20260509045310 | 71 | 170 | 3.0 | 5.0 | 0.00 | 0.00 | 0.00 | 84 | 1009.4 |
| 20260509044808 | 71 | 174 | 1.0 | 6.0 | 0.00 | 0.00 | 0.00 | 84 | 1009.3 |
| 20260509044306 | 71 | 195 | 1.0 | 4.0 | 0.00 | 0.00 | 0.00 | 85 | 1009.2 |
| 20260509043802 | 71 | 151 | 3.0 | 8.0 | 0.00 | 0.00 | 0.00 | 85 | 1009.1 |
| 20260509043258 | 71 | 149 | 8.0 | 9.0 | 0.00 | 0.00 | 0.00 | 87 | 1009.1 |
| 20260509042754 | 72 | 141 | 8.0 | 10.0 | 0.00 | 0.00 | 0.00 | 84 | 1009.3 |
| 20260509042250 | 72 | 131 | 5.0 | 5.0 | 0.00 | 0.00 | 0.00 | 83 | 1009.8 |
| 20260509041747 | 72 | 119 | 2.0 | 2.0 | 0.00 | 0.00 | 0.00 | 82 | 1010.0 |
| 20260509041244 | 72 | 142 | 0.0 | 1.0 | 0.00 | 0.00 | 0.00 | 80 | 1010.2 |
| 20260509040743 | 72 | 141 | 0.0 | 0.0 | 0.00 | 0.00 | 0.00 | 81 | 1010.3 |
| 20260509040239 | 72 | 129 | 0.0 | 0.0 | 0.00 | 0.00 | 0.00 | 81 | 1010.3 |
| 20260509035736 | 72 | 44 | 0.0 | 0.0 | 0.00 | 0.00 | 0.00 | 81 | 1010.4 |
| 20260509035233 | 72 | 15 | 0.0 | 0.0 | 0.00 | 0.00 | 0.00 | 82 | 1010.4 |
| 20260509034730 | 72 | 148 | 0.0 | 0.0 | 0.00 | 0.00 | 0.00 | 82 | 1010.2 |
| 20260509034228 | 72 | 148 | 0.0 | 0.0 | 0.00 | 0.00 | 0.00 | 82 | 1010.2 |
| 20260509033724 | 72 | 147 | 0.0 | 1.0 | 0.00 | 0.00 | 0.00 | 83 | 1010.0 |
| 20260509033221 | 72 | 152 | 3.0 | 4.0 | 0.00 | 0.00 | 0.00 | 82 | 1009.7 |
| 20260509032719 | 72 | 150 | 4.0 | 4.0 | 0.00 | 0.00 | 0.00 | 82 | 1009.6 |
| 20260509032215 | 72 | 151 | 1.0 | 2.0 | 0.00 | 0.00 | 0.00 | 82 | 1009.6 |
| 20260509031713 | 72 | 114 | 0.0 | 2.0 | 0.00 | 0.00 | 0.00 | 82 | 1009.8 |
| 20260509031210 | 72 | 124 | 0.0 | 2.0 | 0.00 | 0.00 | 0.00 | 82 | 1009.5 |
| 20260509030708 | 72 | 119 | 3.0 | 4.0 | 0.00 | 0.00 | 0.00 | 82 | 1009.6 |
| 20260509030205 | 72 | 136 | 6.0 | 6.0 | 0.00 | 0.00 | 0.00 | 82 | 1009.6 |
| 20260509025701 | 72 | 138 | 6.0 | 6.0 | 0.00 | 0.00 | 0.00 | 82 | 1009.2 |
| 20260509025158 | 72 | 145 | 6.0 | 7.0 | 0.00 | 0.00 | 0.00 | 83 | 1009.3 |
| 20260509024653 | 72 | 143 | 6.0 | 7.0 | 0.00 | 0.00 | 0.00 | 84 | 1009.0 |
| 20260509024149 | 71 | 141 | 5.0 | 5.0 | 0.00 | 0.00 | 0.00 | 85 | 1009.0 |
| 20260509023647 | 71 | 140 | 2.0 | 3.0 | 0.00 | 0.00 | 0.00 | 86 | 1009.2 |
| 20260509023144 | 72 | 134 | 5.0 | 6.0 | 0.00 | 0.00 | 0.00 | 85 | 1008.8 |
| 20260509022640 | 72 | 137 | 5.0 | 6.0 | 0.00 | 0.00 | 0.00 | 85 | 1008.9 |
| 20260509022138 | 72 | 138 | 5.0 | 5.0 | 0.00 | 0.00 | 0.00 | 84 | 1008.9 |
| 20260509021634 | 72 | 145 | 4.0 | 5.0 | 0.00 | 0.00 | 0.00 | 83 | 1008.9 |
| 20260509021132 | 72 | 143 | 3.0 | 6.0 | 0.00 | 0.00 | 0.00 | 81 | 1008.8 |
| 20260509020630 | 72 | 159 | 2.0 | 5.0 | 0.00 | 0.00 | 0.00 | 81 | 1008.8 |
| 20260509020126 | 72 | 166 | 1.0 | 3.0 | 0.00 | 0.00 | 0.00 | 80 | 1008.9 |
| 20260509015626 | 72 | 217 | 0.0 | 3.0 | 0.00 | 0.00 | 0.00 | 79 | 1008.7 |
| 20260509015122 | 72 | 202 | 0.0 | 2.0 | 0.00 | 0.00 | 0.00 | 80 | 1008.7 |
| 20260509014619 | 72 | 196 | 2.0 | 3.0 | 0.00 | 0.00 | 0.00 | 81 | 1008.7 |
| 20260509014115 | 72 | 152 | 1.0 | 3.0 | 0.00 | 0.00 | 0.00 | 81 | 1008.8 |
| 20260509013613 | 72 | 143 | 1.0 | 3.0 | 0.00 | 0.00 | 0.00 | 80 | 1008.5 |
| 20260509013108 | 72 | 143 | 2.0 | 3.0 | 0.00 | 0.00 | 0.00 | 79 | 1008.5 |
| 20260509012605 | 72 | 210 | 2.0 | 3.0 | 0.00 | 0.00 | 0.00 | 78 | 1008.6 |
| 20260509012102 | 72 | 230 | 0.0 | 2.0 | 0.00 | 0.00 | 0.00 | 78 | 1008.4 |
| 20260509011600 | 72 | 212 | 3.0 | 3.0 | 0.00 | 0.00 | 0.00 | 79 | 1008.3 |
| 20260509011056 | 72 | 203 | 2.0 | 3.0 | 0.00 | 0.00 | 0.00 | 78 | 1008.4 |
| 20260509010554 | 72 | 195 | 0.0 | 2.0 | 0.00 | 0.00 | 0.00 | 78 | 1008.1 |
| 20260509010051 | 72 | 230 | 0.0 | 3.0 | 0.00 | 0.00 | 0.00 | 78 | 1008.1 |
| 20260509005549 | 72 | 157 | 1.0 | 3.0 | 0.00 | 0.00 | 0.00 | 78 | 1008.1 |
| 20260509005044 | 72 | 215 | 2.0 | 3.0 | 0.00 | 0.00 | 0.00 | 79 | 1008.1 |
| 20260509004541 | 72 | 152 | 2.0 | 3.0 | 0.00 | 0.00 | 0.00 | 79 | 1008.1 |
| 20260509004038 | 72 | 153 | 1.0 | 4.0 | 0.00 | 0.00 | 0.00 | 79 | 1008.0 |
| 20260509003536 | 72 | 152 | 4.0 | 4.0 | 0.00 | 0.00 | 0.00 | 78 | 1007.9 |
| 20260509003033 | 72 | 148 | 2.0 | 2.0 | 0.00 | 0.00 | 0.00 | 78 | 1007.8 |
| 20260509002530 | 73 | 158 | 2.0 | 4.0 | 0.00 | 0.00 | 0.00 | 78 | 1007.8 |
| 20260509002027 | 73 | 153 | 2.0 | 2.0 | 0.00 | 0.00 | 0.00 | 77 | 1007.9 |
| 20260509001525 | 73 | 190 | 0.0 | 3.0 | 0.00 | 0.00 | 0.00 | 77 | 1008.0 |
| 20260509001020 | 73 | 168 | 1.0 | 4.0 | 0.00 | 0.00 | 0.00 | 77 | 1007.9 |
| 20260509000519 | 73 | 147 | 4.0 | 5.0 | 0.00 | 0.00 | 0.00 | 78 | 1008.0 |
| 20260509000015 | 72 | 146 | 3.0 | 4.0 | 0.00 | 0.00 | 0.00 | 78 | 1008.2 |
| 20260508235514 | 72 | 148 | 3.0 | 5.0 | 0.00 | 0.00 | 0.00 | 77 | 1008.3 |
| 20260508235009 | 73 | 151 | 2.0 | 3.0 | 0.00 | 0.00 | 0.00 | 75 | 1008.1 |
| 20260508234507 | 73 | 146 | 2.0 | 3.0 | 0.00 | 0.00 | 0.00 | 75 | 1008.4 |
| 20260508234004 | 72 | 152 | 2.0 | 4.0 | 0.00 | 0.00 | 0.00 | 76 | 1008.4 |
| 20260508233503 | 73 | 143 | 4.0 | 4.0 | 0.00 | 0.00 | 0.00 | 75 | 1008.4 |
| 20260508233000 | 73 | 139 | 4.0 | 4.0 | 0.00 | 0.00 | 0.00 | 75 | 1008.4 |
| 20260508232457 | 73 | 143 | 3.0 | 6.0 | 0.00 | 0.00 | 0.00 | 75 | 1008.6 |
| 20260508231954 | 73 | 143 | 6.0 | 6.0 | 0.00 | 0.00 | 0.00 | 75 | 1008.4 |
| 20260508231451 | 73 | 147 | 5.0 | 6.0 | 0.00 | 0.00 | 0.00 | 75 | 1008.5 |
| 20260508230948 | 73 | 154 | 4.0 | 7.0 | 0.00 | 0.00 | 0.00 | 75 | 1008.5 |
| 20260508230445 | 73 | 141 | 7.0 | 10.0 | 0.00 | 0.00 | 0.00 | 74 | 1008.6 |
| 20260508225942 | 73 | 151 | 5.0 | 6.0 | 0.00 | 0.00 | 0.00 | 74 | 1008.6 |
| 20260508225439 | 74 | 148 | 6.0 | 8.0 | 0.00 | 0.00 | 0.00 | 74 | 1008.7 |
| 20260508224936 | 74 | 142 | 10.0 | 11.0 | 0.00 | 0.00 | 0.00 | 72 | 1008.7 |
| 20260508224433 | 74 | 147 | 6.0 | 8.0 | 0.00 | 0.00 | 0.00 | 73 | 1008.6 |
| 20260508223930 | 73 | 166 | 4.0 | 8.0 | 0.00 | 0.00 | 0.00 | 72 | 1008.7 |
| 20260508223428 | 74 | 149 | 6.0 | 8.0 | 0.00 | 0.00 | 0.00 | 72 | 1008.5 |
| 20260508222925 | 74 | 150 | 6.0 | 7.0 | 0.00 | 0.00 | 0.00 | 72 | 1008.6 |
| 20260508222423 | 74 | 143 | 3.0 | 6.0 | 0.00 | 0.00 | 0.00 | 73 | 1008.6 |
| 20260508221919 | 74 | 166 | 2.0 | 7.0 | 0.00 | 0.00 | 0.00 | 71 | 1008.4 |
| 20260508221415 | 74 | 186 | 3.0 | 5.0 | 0.00 | 0.00 | 0.00 | 71 | 1008.5 |
| 20260508220911 | 75 | 177 | 3.0 | 7.0 | 0.00 | 0.00 | 0.00 | 70 | 1008.5 |
| 20260508220407 | 75 | 155 | 3.0 | 5.0 | 0.00 | 0.00 | 0.00 | 70 | 1008.3 |
| 20260508215904 | 76 | 162 | 2.0 | 5.0 | 0.00 | 0.00 | 0.00 | 70 | 1008.4 |
| 20260508215401 | 75 | 180 | 2.0 | 6.0 | 0.00 | 0.00 | 0.00 | 73 | 1008.6 |
| 20260508214857 | 75 | 146 | 6.0 | 6.0 | 0.00 | 0.00 | 0.00 | 73 | 1008.2 |
| 20260508214355 | 74 | 146 | 5.0 | 6.0 | 0.00 | 0.00 | 0.00 | 74 | 1008.2 |
| 20260508213851 | 74 | 147 | 5.0 | 7.0 | 0.00 | 0.00 | 0.00 | 75 | 1008.3 |
| 20260508213348 | 73 | 134 | 5.0 | 9.0 | 0.00 | 0.00 | 0.00 | 74 | 1008.1 |
| 20260508212844 | 73 | 132 | 10.0 | 11.0 | 0.00 | 0.00 | 0.00 | 77 | 1008.2 |
| 20260508212341 | 73 | 125 | 9.0 | 9.0 | 0.00 | 0.00 | 0.00 | 78 | 1008.7 |
| 20260508211836 | 72 | 150 | 5.0 | 6.0 | 0.00 | 0.00 | 0.00 | 77 | 1009.0 |
| 20260508211332 | 73 | 149 | 6.0 | 8.0 | 0.00 | 0.00 | 0.00 | 77 | 1009.4 |
| 20260508210830 | 73 | 148 | 7.0 | 9.0 | 0.00 | 0.00 | 0.00 | 75 | 1009.1 |
| 20260508210327 | 73 | 149 | 7.0 | 9.0 | 0.00 | 0.00 | 0.00 | 74 | 1009.3 |
| 20260508205824 | 73 | 157 | 4.0 | 5.0 | 0.00 | 0.00 | 0.00 | 71 | 1009.8 |
| 20260508205320 | 74 | 180 | 2.0 | 6.0 | 0.00 | 0.00 | 0.00 | 69 | 1010.1 |
| 20260508204816 | 74 | 196 | 4.0 | 7.0 | 0.00 | 0.00 | 0.00 | 67 | 1010.1 |
| 20260508204313 | 74 | 213 | 2.0 | 6.0 | 0.00 | 0.00 | 0.00 | 66 | 1010.2 |
| 20260508203809 | 74 | 164 | 3.0 | 4.0 | 0.00 | 0.00 | 0.00 | 66 | 1010.3 |
| 20260508203305 | 75 | 208 | 4.0 | 6.0 | 0.00 | 0.00 | 0.00 | 65 | 1010.4 |
| 20260508202801 | 75 | 259 | 1.0 | 2.0 | 0.00 | 0.00 | 0.00 | 66 | 1010.3 |
| 20260508202259 | 75 | 174 | 6.0 | 6.0 | 0.00 | 0.00 | 0.00 | 65 | 1010.2 |
| 20260508201756 | 75 | 192 | 2.0 | 5.0 | 0.00 | 0.00 | 0.00 | 65 | 1010.3 |
| 20260508201252 | 75 | 177 | 1.0 | 4.0 | 0.00 | 0.00 | 0.00 | 65 | 1010.3 |
| 20260508200749 | 75 | 188 | 1.0 | 6.0 | 0.00 | 0.00 | 0.00 | 65 | 1010.2 |
| 20260508200245 | 75 | 180 | 2.0 | 5.0 | 0.00 | 0.00 | 0.00 | 66 | 1010.2 |
| 20260508195741 | 76 | 201 | 2.0 | 6.0 | 0.00 | 0.00 | 0.00 | 64 | 1010.3 |
| 20260508195238 | 76 | 191 | 5.0 | 8.0 | 0.00 | 0.00 | 0.00 | 63 | 1010.3 |
| 20260508194735 | 76 | 198 | 5.0 | 7.0 | 0.00 | 0.00 | 0.00 | 64 | 1010.4 |
| 20260508194232 | 76 | 145 | 5.0 | 6.0 | 0.00 | 0.00 | 0.00 | 66 | 1010.3 |
| 20260508193729 | 76 | 168 | 2.0 | 9.0 | 0.00 | 0.00 | 0.00 | 66 | 1010.4 |
| 20260508193225 | 76 | 156 | 5.0 | 6.0 | 0.00 | 0.00 | 0.00 | 66 | 1010.4 |
| 20260508192722 | 76 | 195 | 2.0 | 7.0 | 0.00 | 0.00 | 0.00 | 66 | 1010.4 |
| 20260508192219 | 76 | 148 | 5.0 | 9.0 | 0.00 | 0.00 | 0.00 | 66 | 1010.6 |
| 20260508191716 | 76 | 154 | 4.0 | 6.0 | 0.00 | 0.00 | 0.00 | 65 | 1010.6 |
| 20260508191213 | 76 | 148 | 5.0 | 9.0 | 0.00 | 0.00 | 0.00 | 65 | 1010.5 |
| 20260508190710 | 76 | 154 | 4.0 | 6.0 | 0.00 | 0.00 | 0.00 | 64 | 1010.7 |
| 20260508190206 | 77 | 153 | 7.0 | 8.0 | 0.00 | 0.00 | 0.00 | 63 | 1010.6 |
| 20260508185703 | 76 | 133 | 1.0 | 6.0 | 0.00 | 0.00 | 0.00 | 64 | 1010.9 |
| 20260508185201 | 77 | 150 | 8.0 | 9.0 | 0.00 | 0.00 | 0.00 | 63 | 1010.6 |
| 20260508184658 | 77 | 191 | 3.0 | 8.0 | 0.00 | 0.00 | 0.00 | 63 | 1010.9 |
| 20260508184155 | 76 | 200 | 0.0 | 6.0 | 0.00 | 0.00 | 0.00 | 65 | 1010.8 |
| 20260508183652 | 76 | 143 | 3.0 | 6.0 | 0.00 | 0.00 | 0.00 | 64 | 1010.9 |
| 20260508183148 | 76 | 156 | 3.0 | 5.0 | 0.00 | 0.00 | 0.00 | 63 | 1011.0 |
| 20260508182644 | 76 | 184 | 1.0 | 4.0 | 0.00 | 0.00 | 0.00 | 64 | 1011.0 |
| 20260508182141 | 76 | 146 | 3.0 | 6.0 | 0.00 | 0.00 | 0.00 | 66 | 1011.0 |
| 20260508181636 | 75 | 180 | 2.0 | 5.0 | 0.00 | 0.00 | 0.00 | 63 | 1011.2 |
| 20260508181134 | 75 | 148 | 4.0 | 6.0 | 0.00 | 0.00 | 0.00 | 64 | 1011.2 |
| 20260508180630 | 75 | 149 | 4.0 | 7.0 | 0.00 | 0.00 | 0.00 | 65 | 1011.2 |
| 20260508180127 | 75 | 144 | 2.0 | 6.0 | 0.00 | 0.00 | 0.00 | 65 | 1011.6 |
| 20260508175623 | 75 | 168 | 3.0 | 5.0 | 0.00 | 0.00 | 0.00 | 64 | 1011.8 |
| 20260508175121 | 74 | 139 | 3.0 | 5.0 | 0.00 | 0.00 | 0.00 | 67 | 1011.6 |
| 20260508174618 | 74 | 157 | 4.0 | 6.0 | 0.00 | 0.00 | 0.00 | 67 | 1011.9 |
| 20260508174115 | 73 | 149 | 3.0 | 5.0 | 0.00 | 0.00 | 0.00 | 66 | 1011.8 |
| 20260508173612 | 73 | 142 | 4.0 | 5.0 | 0.00 | 0.00 | 0.00 | 67 | 1011.7 |
| 20260508173108 | 73 | 147 | 7.0 | 7.0 | 0.00 | 0.00 | 0.00 | 65 | 1011.9 |
| 20260508172605 | 73 | 148 | 4.0 | 6.0 | 0.00 | 0.00 | 0.00 | 66 | 1012.1 |
| 20260508172101 | 73 | 143 | 5.0 | 7.0 | 0.00 | 0.00 | 0.00 | 67 | 1012.2 |
| 20260508171558 | 73 | 191 | 2.0 | 5.0 | 0.00 | 0.00 | 0.00 | 66 | 1012.3 |
| 20260508171054 | 73 | 159 | 2.0 | 7.0 | 0.00 | 0.00 | 0.00 | 68 | 1012.5 |
| 20260508170552 | 73 | 142 | 7.0 | 7.0 | 0.00 | 0.00 | 0.00 | 66 | 1012.6 |
| 20260508170049 | 73 | 150 | 3.0 | 6.0 | 0.00 | 0.00 | 0.00 | 66 | 1012.8 |
| 20260508165546 | 73 | 142 | 4.0 | 6.0 | 0.00 | 0.00 | 0.00 | 67 | 1012.8 |
| 20260508165043 | 73 | 150 | 3.0 | 6.0 | 0.00 | 0.00 | 0.00 | 66 | 1013.0 |
| 20260508164539 | 72 | 162 | 3.0 | 4.0 | 0.00 | 0.00 | 0.00 | 69 | 1013.3 |
| 20260508164036 | 72 | 144 | 3.0 | 6.0 | 0.00 | 0.00 | 0.00 | 68 | 1013.1 |
| 20260508163534 | 72 | 146 | 5.0 | 5.0 | 0.00 | 0.00 | 0.00 | 66 | 1013.5 |
| 20260508163030 | 71 | 146 | 4.0 | 5.0 | 0.00 | 0.00 | 0.00 | 68 | 1013.5 |
| 20260508162527 | 71 | 190 | 5.0 | 6.0 | 0.00 | 0.00 | 0.00 | 69 | 1013.6 |
| 20260508162025 | 70 | 146 | 3.0 | 5.0 | 0.00 | 0.00 | 0.00 | 69 | 1013.6 |
| 20260508161521 | 70 | 157 | 3.0 | 6.0 | 0.00 | 0.00 | 0.00 | 69 | 1013.8 |
| 20260508161018 | 70 | 147 | 3.0 | 6.0 | 0.00 | 0.00 | 0.00 | 70 | 1013.6 |
| 20260508160517 | 70 | 168 | 2.0 | 8.0 | 0.00 | 0.00 | 0.00 | 69 | 1013.7 |
| 20260508160014 | 69 | 150 | 4.0 | 8.0 | 0.00 | 0.00 | 0.00 | 70 | 1013.8 |
| 20260508155510 | 69 | 146 | 5.0 | 6.0 | 0.00 | 0.00 | 0.00 | 70 | 1013.8 |
| 20260508155008 | 69 | 171 | 2.0 | 9.0 | 0.00 | 0.00 | 0.00 | 70 | 1014.0 |
| 20260508154505 | 70 | 149 | 5.0 | 7.0 | 0.00 | 0.00 | 0.00 | 69 | 1014.2 |
| 20260508154001 | 69 | 154 | 3.0 | 9.0 | 0.00 | 0.00 | 0.00 | 71 | 1014.1 |
| 20260508153458 | 69 | 148 | 8.0 | 10.0 | 0.00 | 0.00 | 0.00 | 71 | 1013.8 |
| 20260508152954 | 69 | 181 | 2.0 | 6.0 | 0.00 | 0.00 | 0.00 | 68 | 1014.0 |
| 20260508152451 | 69 | 168 | 4.0 | 6.0 | 0.00 | 0.00 | 0.00 | 70 | 1014.1 |
| 20260508151947 | 69 | 165 | 2.0 | 6.0 | 0.00 | 0.00 | 0.00 | 69 | 1014.2 |
| 20260508151444 | 68 | 148 | 8.0 | 9.0 | 0.00 | 0.00 | 0.00 | 70 | 1014.0 |
| 20260508150941 | 69 | 140 | 7.0 | 8.0 | 0.00 | 0.00 | 0.00 | 70 | 1014.1 |
| 20260508150437 | 68 | 155 | 6.0 | 9.0 | 0.00 | 0.00 | 0.00 | 70 | 1014.1 |
| 20260508145933 | 68 | 158 | 5.0 | 9.0 | 0.00 | 0.00 | 0.00 | 70 | 1014.1 |
| 20260508145430 | 68 | 146 | 6.0 | 8.0 | 0.00 | 0.00 | 0.00 | 71 | 1013.9 |
| 20260508144927 | 68 | 138 | 7.0 | 8.0 | 0.00 | 0.00 | 0.00 | 70 | 1013.9 |
| 20260508144425 | 68 | 144 | 5.0 | 8.0 | 0.00 | 0.00 | 0.00 | 71 | 1013.9 |
| 20260508143922 | 68 | 145 | 6.0 | 7.0 | 0.00 | 0.00 | 0.00 | 71 | 1014.0 |
| 20260508143419 | 67 | 130 | 5.0 | 9.0 | 0.00 | 0.00 | 0.00 | 71 | 1014.0 |
| 20260508142915 | 67 | 141 | 7.0 | 10.0 | 0.00 | 0.00 | 0.00 | 71 | 1014.1 |
| 20260508142413 | 68 | 132 | 7.0 | 10.0 | 0.00 | 0.00 | 0.00 | 72 | 1014.3 |
| 20260508141909 | 68 | 131 | 11.0 | 12.0 | 0.00 | 0.00 | 0.00 | 70 | 1014.5 |
| 20260508141406 | 67 | 139 | 12.0 | 12.0 | 0.00 | 0.00 | 0.00 | 72 | 1014.2 |
| 20260508140904 | 67 | 139 | 10.0 | 13.0 | 0.00 | 0.00 | 0.00 | 71 | 1014.3 |
| 20260508140400 | 67 | 136 | 10.0 | 12.0 | 0.00 | 0.00 | 0.00 | 73 | 1014.3 |
| 20260508135856 | 67 | 143 | 8.0 | 11.0 | 0.00 | 0.00 | 0.00 | 73 | 1014.3 |
| 20260508135352 | 67 | 124 | 8.0 | 11.0 | 0.00 | 0.00 | 0.00 | 72 | 1014.3 |
| 20260508134849 | 67 | 123 | 7.0 | 10.0 | 0.00 | 0.00 | 0.00 | 74 | 1014.4 |
| 20260508134345 | 66 | 130 | 11.0 | 12.0 | 0.00 | 0.00 | 0.00 | 74 | 1014.1 |
| 20260508133842 | 66 | 118 | 8.0 | 10.0 | 0.00 | 0.00 | 0.00 | 75 | 1014.2 |
| 20260508133340 | 66 | 116 | 8.0 | 9.0 | 0.00 | 0.00 | 0.00 | 76 | 1014.1 |
| 20260508132837 | 65 | 128 | 8.0 | 10.0 | 0.00 | 0.00 | 0.00 | 76 | 1014.2 |
| 20260508132335 | 65 | 119 | 9.0 | 10.0 | 0.00 | 0.00 | 0.00 | 78 | 1014.4 |
| 20260508131831 | 64 | 117 | 6.0 | 9.0 | 0.00 | 0.00 | 0.00 | 76 | 1014.6 |
| 20260508131327 | 64 | 115 | 8.0 | 11.0 | 0.00 | 0.00 | 0.00 | 77 | 1014.4 |
| 20260508130824 | 64 | 129 | 8.0 | 9.0 | 0.00 | 0.00 | 0.00 | 77 | 1014.6 |
| 20260508130321 | 65 | 119 | 4.0 | 7.0 | 0.00 | 0.00 | 0.00 | 77 | 1014.5 |
| 20260508125817 | 65 | 117 | 6.0 | 6.0 | 0.00 | 0.00 | 0.00 | 78 | 1014.5 |
| 20260508125313 | 64 | 125 | 6.0 | 7.0 | 0.00 | 0.00 | 0.00 | 76 | 1014.6 |
| 20260508124811 | 64 | 114 | 3.0 | 3.0 | 0.00 | 0.00 | 0.00 | 77 | 1014.7 |
| 20260508124308 | 64 | 112 | 3.0 | 3.0 | 0.00 | 0.00 | 0.00 | 77 | 1015.0 |
| 20260508123806 | 64 | 94 | 3.0 | 3.0 | 0.00 | 0.00 | 0.00 | 78 | 1014.9 |
| 20260508123304 | 64 | 130 | 6.0 | 9.0 | 0.00 | 0.00 | 0.00 | 78 | 1014.5 |
| 20260508122800 | 64 | 121 | 11.0 | 12.0 | 0.00 | 0.00 | 0.00 | 78 | 1014.4 |
| 20260508122257 | 64 | 116 | 9.0 | 12.0 | 0.00 | 0.00 | 0.00 | 78 | 1014.4 |
| 20260508121754 | 64 | 135 | 7.0 | 9.0 | 0.00 | 0.00 | 0.00 | 78 | 1014.6 |
| 20260508121253 | 64 | 129 | 8.0 | 12.0 | 0.00 | 0.00 | 0.00 | 78 | 1014.6 |
| 20260508120749 | 64 | 136 | 8.0 | 8.0 | 0.00 | 0.00 | 0.00 | 78 | 1014.6 |
| 20260508120248 | 64 | 142 | 8.0 | 10.0 | 0.00 | 0.00 | 0.00 | 78 | 1014.5 |
| 20260508115745 | 64 | 151 | 5.0 | 8.0 | 0.00 | 0.00 | 0.00 | 78 | 1014.5 |
| 20260508115242 | 64 | 141 | 7.0 | 11.0 | 0.00 | 0.00 | 0.00 | 79 | 1014.6 |
| 20260508114733 | 64 | 133 | 9.0 | 12.0 | 0.00 | 0.00 | 0.00 | 82 | 1014.4 |
| 20260508114230 | 64 | 132 | 9.0 | 12.0 | 0.00 | 0.00 | 0.00 | 85 | 1014.4 |
| 20260508113727 | 62 | 149 | 7.0 | 7.0 | 0.00 | 0.00 | 0.00 | 87 | 1014.4 |
| 20260508113226 | 62 | 189 | 0.0 | 2.0 | 0.00 | 0.00 | 0.00 | 86 | 1014.7 |
| 20260508112721 | 62 | 120 | 1.0 | 1.0 | 0.00 | 0.00 | 0.00 | 85 | 1015.0 |
| 20260508112218 | 62 | 269 | 0.0 | 1.0 | 0.00 | 0.00 | 0.00 | 85 | 1014.9 |
| 20260508111714 | 62 | 150 | 1.0 | 2.0 | 0.00 | 0.00 | 0.00 | 85 | 1014.9 |
| 20260508111212 | 62 | 233 | 1.0 | 2.0 | 0.00 | 0.00 | 0.00 | 85 | 1015.3 |
| 20260508110710 | 62 | 271 | 0.0 | 4.0 | 0.00 | 0.00 | 0.00 | 85 | 1015.4 |
| 20260508110207 | 62 | 281 | 2.0 | 3.0 | 0.00 | 0.00 | 0.00 | 84 | 1015.2 |
| 20260508105706 | 63 | 323 | 0.0 | 3.0 | 0.00 | 0.00 | 0.00 | 84 | 1014.8 |
| 20260508105203 | 63 | 231 | 2.0 | 4.0 | 0.00 | 0.00 | 0.00 | 83 | 1014.5 |
| 20260508104701 | 63 | 245 | 3.0 | 3.0 | 0.00 | 0.00 | 0.00 | 83 | 1014.2 |
| 20260508104157 | 63 | 153 | 2.0 | 6.0 | 0.00 | 0.00 | 0.00 | 83 | 1013.9 |
| 20260508103654 | 63 | 141 | 3.0 | 5.0 | 0.00 | 0.00 | 0.00 | 84 | 1013.9 |
| 20260508103151 | 63 | 139 | 6.0 | 8.0 | 0.00 | 0.00 | 0.00 | 84 | 1013.6 |
| 20260508102649 | 63 | 159 | 5.0 | 9.0 | 0.00 | 0.00 | 0.00 | 84 | 1013.6 |
| 20260508102147 | 63 | 144 | 8.0 | 10.0 | 0.00 | 0.00 | 0.00 | 84 | 1013.4 |
| 20260508101644 | 64 | 141 | 9.0 | 12.0 | 0.00 | 0.00 | 0.00 | 84 | 1013.3 |
| 20260508101142 | 64 | 142 | 11.0 | 11.0 | 0.00 | 0.00 | 0.00 | 84 | 1013.5 |
| 20260508100639 | 64 | 136 | 9.0 | 11.0 | 0.00 | 0.00 | 0.00 | 82 | 1013.6 |
| 20260508100137 | 64 | 142 | 9.0 | 10.0 | 0.00 | 0.00 | 0.00 | 83 | 1013.9 |
| 20260508095633 | 64 | 134 | 7.0 | 8.0 | 0.00 | 0.00 | 0.00 | 82 | 1013.8 |
| 20260508095130 | 64 | 146 | 8.0 | 9.0 | 0.00 | 0.00 | 0.00 | 82 | 1013.8 |
| 20260508094627 | 64 | 140 | 7.0 | 9.0 | 0.00 | 0.00 | 0.00 | 82 | 1013.7 |
| 20260508094124 | 64 | 146 | 6.0 | 8.0 | 0.00 | 0.00 | 0.00 | 82 | 1013.7 |
| 20260508093621 | 64 | 137 | 6.0 | 8.0 | 0.00 | 0.00 | 0.00 | 81 | 1013.7 |
| 20260508093119 | 64 | 141 | 8.0 | 11.0 | 0.00 | 0.00 | 0.00 | 82 | 1013.8 |
| 20260508092616 | 64 | 141 | 8.0 | 9.0 | 0.00 | 0.00 | 0.00 | 81 | 1013.8 |
| 20260508092114 | 64 | 131 | 9.0 | 10.0 | 0.00 | 0.00 | 0.00 | 82 | 1013.6 |
| 20260508091610 | 64 | 139 | 9.0 | 10.0 | 0.00 | 0.00 | 0.00 | 84 | 1013.8 |
| 20260508091107 | 64 | 138 | 9.0 | 11.0 | 0.00 | 0.00 | 0.00 | 83 | 1013.7 |
| 20260508090605 | 64 | 135 | 9.0 | 12.0 | 0.00 | 0.00 | 0.00 | 82 | 1014.1 |
| 20260508085558 | 65 | 132 | 12.0 | 16.0 | 0.00 | 0.00 | 0.00 | 81 | 1013.5 |
| 20260508085056 | 64 | 138 | 12.0 | 13.0 | 0.00 | 0.00 | 0.00 | 82 | 1013.8 |
| 20260508084552 | 63 | 130 | 7.0 | 9.0 | 0.00 | 0.00 | 0.00 | 85 | 1014.2 |
| 20260508084049 | 62 | 135 | 0.0 | 1.0 | 0.00 | 0.00 | 0.00 | 86 | 1014.6 |
| 20260508083547 | 62 | 143 | 0.0 | 0.0 | 0.00 | 0.00 | 0.00 | 86 | 1014.8 |
| 20260508083043 | 62 | 150 | 0.0 | 1.0 | 0.00 | 0.00 | 0.00 | 86 | 1014.8 |
| 20260508082539 | 63 | 129 | 1.0 | 2.0 | 0.00 | 0.00 | 0.00 | 85 | 1015.0 |
| 20260508082037 | 63 | 66 | 0.0 | 1.0 | 0.00 | 0.00 | 0.00 | 85 | 1014.9 |
| 20260508081534 | 63 | 296 | 0.0 | 1.0 | 0.00 | 0.00 | 0.00 | 85 | 1015.2 |
| 20260508081030 | 63 | 280 | 2.0 | 2.0 | 0.00 | 0.00 | 0.00 | 84 | 1015.1 |
| 20260508080528 | 63 | 29 | 0.0 | 1.0 | 0.00 | 0.00 | 0.00 | 84 | 1015.0 |
| 20260508080025 | 64 | 266 | 2.0 | 3.0 | 0.00 | 0.00 | 0.00 | 84 | 1015.4 |
| 20260508075522 | 64 | 276 | 3.0 | 4.0 | 0.00 | 0.00 | 0.00 | 83 | 1015.3 |
| 20260508075019 | 64 | 203 | 2.0 | 4.0 | 0.00 | 0.00 | 0.00 | 84 | 1014.9 |
| 20260508074517 | 64 | 147 | 2.0 | 3.0 | 0.00 | 0.00 | 0.00 | 83 | 1014.8 |
| 20260508074013 | 64 | 204 | 2.0 | 2.0 | 0.00 | 0.00 | 0.00 | 83 | 1014.7 |
| 20260508073511 | 64 | 202 | 0.0 | 2.0 | 0.00 | 0.00 | 0.00 | 83 | 1014.7 |
| 20260508073008 | 64 | 140 | 3.0 | 4.0 | 0.00 | 0.00 | 0.00 | 83 | 1014.6 |
| 20260508072504 | 64 | 147 | 2.0 | 4.0 | 0.00 | 0.00 | 0.00 | 83 | 1014.6 |
| 20260508072001 | 64 | 143 | 3.0 | 4.0 | 0.00 | 0.00 | 0.00 | 83 | 1014.8 |
| 20260508071459 | 64 | 144 | 3.0 | 6.0 | 0.00 | 0.00 | 0.00 | 83 | 1014.8 |
| 20260508070956 | 64 | 141 | 5.0 | 6.0 | 0.00 | 0.00 | 0.00 | 83 | 1014.8 |
| 20260508070454 | 64 | 135 | 7.0 | 8.0 | 0.00 | 0.00 | 0.00 | 83 | 1014.8 |
| 20260508065952 | 64 | 134 | 6.0 | 9.0 | 0.00 | 0.00 | 0.00 | 83 | 1015.2 |
| 20260508065450 | 64 | 138 | 5.0 | 7.0 | 0.00 | 0.00 | 0.00 | 84 | 1015.1 |
| 20260508064948 | 64 | 144 | 5.0 | 6.0 | 0.00 | 0.00 | 0.00 | 83 | 1015.3 |
| 20260508064445 | 63 | 180 | 0.0 | 2.0 | 0.00 | 0.00 | 0.00 | 81 | 1015.2 |
| 20260508063942 | 64 | 170 | 0.0 | 2.0 | 0.00 | 0.00 | 0.00 | 81 | 1015.3 |
| 20260508063440 | 64 | 255 | 2.0 | 2.0 | 0.00 | 0.00 | 0.00 | 81 | 1015.6 |
| 20260508062937 | 64 | 158 | 0.0 | 4.0 | 0.00 | 0.00 | 0.00 | 81 | 1015.3 |
| 20260508062435 | 64 | 141 | 4.0 | 5.0 | 0.00 | 0.00 | 0.00 | 81 | 1015.4 |
| 20260508061932 | 64 | 157 | 4.0 | 6.0 | 0.00 | 0.00 | 0.00 | 80 | 1015.4 |
| 20260508061430 | 64 | 140 | 1.0 | 8.0 | 0.00 | 0.00 | 0.00 | 80 | 1015.4 |
| 20260508060926 | 64 | 134 | 6.0 | 7.0 | 0.00 | 0.00 | 0.00 | 78 | 1015.5 |
| 20260508060424 | 65 | 137 | 5.0 | 6.0 | 0.00 | 0.00 | 0.00 | 77 | 1015.4 |
| 20260508055919 | 64 | 130 | 5.0 | 6.0 | 0.00 | 0.00 | 0.00 | 77 | 1015.2 |
| 20260508055416 | 65 | 130 | 7.0 | 8.0 | 0.00 | 0.00 | 0.00 | 76 | 1015.6 |
| 20260508054913 | 65 | 120 | 4.0 | 5.0 | 0.00 | 0.00 | 0.00 | 76 | 1015.4 |
| 20260508054410 | 65 | 126 | 5.0 | 7.0 | 0.00 | 0.00 | 0.00 | 76 | 1015.5 |